Location: Huntsville
(41.2590°N, 111.7678°W)
Time: 00:29:39
(UTC+00:00)

Envisat - Pass Details

Date: 09 December 2021
Orbit: 764 x 766 km, 98.2° (Epoch: 16 January)

Event Time Altitude Azimuth Distance (km) Brightness Sun altitude
Rises 12:27:18 0° 13° (NNE) 3,241 6.3 -24.4°
Reaches altitude 10° 12:29:37 10° 14° (NNE) 2,310 5.5 -23.9°
Maximum altitude 12:34:43 86° 104° (ESE) 772 2.9 -23.0°
Drops below altitude 10° 12:39:47 10° 193° (SSW) 2,292 5.4 -22.1°
Sets 12:42:05 0° 194° (SSW) 3,214 6.2 -21.7°
